RCH6699 KADW-EGKK

Flight info

Callsign RCH6699
Flight time N/A
Altitude 33000
Route VAALI DCT TUNDR DCT AGARD/N0282F090 T287 SPEAK/N0324F170 T287 DONIL/N0428F330 DCT SIE B24 LYNUS DCT LARGE DCT JOBOC/M074F340 NATX 41N060W/M074F330 43N050W/M074F350 NATX NASBA/M074F370 DCT GAPLI/N0425F370 DCT SIDDI DCT DAWLY DCT ELRIP DCT OTMET
Aircraft C17/H-SDE1E2FGHIJ5RTUWXY/LB1D1

Departure

Time 2026-05-05 02:42
Airport Joint Base Andrews (KADW)

Arrival

Time N/A
Airport London Gatwick Airport (EGKK)
Time Latitude Longitude Altitude Speed Heading
2026-05-05 02:24 38.80396 -76.87564 273 ft 0 kts
2026-05-05 02:34 38.80398 -76.87564 273 ft 3 kts
2026-05-05 02:34 38.80462 -76.87560 273 ft 11 kts
2026-05-05 02:35 38.80543 -76.87556 272 ft 12 kts
2026-05-05 02:35 38.80633 -76.87552 270 ft 14 kts
2026-05-05 02:35 38.80728 -76.87547 270 ft 13 kts
2026-05-05 02:35 38.80815 -76.87542 272 ft 12 kts
2026-05-05 02:36 38.80894 -76.87538 273 ft 11 kts
2026-05-05 02:36 38.80973 -76.87493 273 ft 17 kts 26°
2026-05-05 02:36 38.81105 -76.87451 276 ft 19 kts 355°
2026-05-05 02:36 38.81253 -76.87452 279 ft 25 kts 360°
2026-05-05 02:37 38.81456 -76.87453 279 ft 33 kts 359°
2026-05-05 02:37 38.81704 -76.87457 282 ft 39 kts 359°
2026-05-05 02:37 38.81993 -76.87453 284 ft 44 kts
2026-05-05 02:37 38.82268 -76.87439 287 ft 26 kts 22°
2026-05-05 02:38 38.82310 -76.87257 293 ft 21 kts 90°
2026-05-05 02:38 38.82310 -76.87115 296 ft 8 kts 97°
2026-05-05 02:38 38.82290 -76.87069 297 ft 2 kts 159°
2026-05-05 02:38 38.82287 -76.87069 295 ft 0 kts 178°
2026-05-05 02:41 38.82181 -76.87066 293 ft 37 kts 179°
2026-05-05 02:41 38.81724 -76.87072 280 ft 104 kts 180°
2026-05-05 02:41 38.80726 -76.87065 302 ft 176 kts 180°
2026-05-05 02:42 38.79404 -76.87040 847 ft 207 kts 178°
2026-05-05 02:42 38.77975 -76.86531 1831 ft 226 kts 160°
2026-05-05 02:42 38.76701 -76.85217 2808 ft 251 kts 137°
2026-05-05 02:42 38.75590 -76.83289 3244 ft 281 kts 132°
2026-05-05 02:43 38.74307 -76.81304 3852 ft 296 kts 137°
2026-05-05 02:43 38.72766 -76.79506 4471 ft 304 kts 146°
2026-05-05 02:43 38.70977 -76.78012 5086 ft 312 kts 153°
2026-05-05 02:43 38.68999 -76.76458 5639 ft 361 kts 152°
2026-05-05 02:44 38.66708 -76.74658 6303 ft 404 kts 152°
2026-05-05 02:44 38.64375 -76.72828 6981 ft 380 kts 152°
2026-05-05 02:44 38.62209 -76.71145 7861 ft 344 kts 153°
2026-05-05 02:44 38.60288 -76.69663 9069 ft 307 kts 153°
2026-05-05 02:45 38.58467 -76.68269 9181 ft 310 kts 153°
2026-05-05 02:45 38.56511 -76.66807 8306 ft 345 kts 153°
2026-05-05 02:45 38.54351 -76.65235 7719 ft 364 kts 154°
2026-05-05 02:45 38.52210 -76.63646 8197 ft 346 kts 146°
2026-05-05 02:46 38.50632 -76.61352 8185 ft 354 kts 118°
2026-05-05 02:46 38.50001 -76.58217 7161 ft 384 kts 89°
2026-05-05 02:46 38.50686 -76.54849 6250 ft 403 kts 58°
2026-05-05 02:46 38.52355 -76.52095 6641 ft 373 kts 51°
2026-05-05 02:47 38.53641 -76.49552 8412 ft 310 kts 58°
2026-05-05 02:47 38.54567 -76.47229 9441 ft 286 kts 58°
2026-05-05 02:47 38.55547 -76.44906 8798 ft 315 kts 57°
2026-05-05 02:47 38.56738 -76.42350 7480 ft 347 kts 55°
2026-05-05 02:48 38.58074 -76.39740 6322 ft 356 kts 54°
2026-05-05 02:48 38.59521 -76.37134 5151 ft 362 kts 52°
2026-05-05 02:48 38.61064 -76.34565 3962 ft 366 kts 51°
2026-05-05 02:48 38.62691 -76.32048 2888 ft 368 kts 50°
2026-05-05 02:49 38.64279 -76.29652 2956 ft 331 kts 50°
2026-05-05 02:49 38.65666 -76.27562 3367 ft 290 kts 50°
2026-05-05 02:49 38.66957 -76.25620 2751 ft 291 kts 50°
2026-05-05 02:49 38.68334 -76.23551 1269 ft 321 kts 51°
2026-05-05 02:50 38.69769 -76.21398 1148 ft 297 kts 52°
2026-05-05 02:50 38.71172 -76.19759 1507 ft 256 kts 28°
2026-05-05 02:50 38.72794 -76.19182 1272 ft 238 kts 358°
2026-05-05 02:50 38.74360 -76.19116 1467 ft 213 kts
2026-05-05 02:51 38.75841 -76.18805 2712 ft 219 kts
2026-05-05 02:51 38.77328 -76.18563 4235 ft 208 kts 345°
2026-05-05 02:51 38.78619 -76.19276 5515 ft 213 kts 322°
2026-05-05 02:51 38.79961 -76.20267 6720 ft 231 kts 325°
2026-05-05 02:52 38.81480 -76.21100 8201 ft 244 kts 338°
2026-05-05 02:52 38.83147 -76.21538 9944 ft 245 kts 348°
2026-05-05 02:52 38.84839 -76.21536 11700 ft 240 kts 356°
2026-05-05 02:52 38.86437 -76.21421 13589 ft 218 kts 355°
2026-05-05 02:53 38.87842 -76.21335 15247 ft 188 kts 355°
2026-05-05 02:53 38.88736 -76.21288 15795 ft 205 kts 355°
2026-05-05 02:53 38.90257 -76.21233 16105 ft 240 kts 356°
2026-05-05 02:53 38.92603 -76.21086 17001 ft 267 kts 10°
2026-05-05 02:54 38.93794 -76.20477 17305 ft 294 kts 30°
2026-05-05 02:54 38.95436 -76.18659 17788 ft 333 kts 49°
2026-05-05 02:54 38.97293 -76.15115 18015 ft 393 kts 50°
2026-05-05 02:54 38.99703 -76.13454 17810 ft 388 kts 10°
2026-05-05 02:55 39.01426 -76.13124 16994 ft 358 kts
2026-05-05 02:55 39.03836 -76.12944 15429 ft 332 kts 350°
2026-05-05 02:55 39.05563 -76.14334 14374 ft 279 kts 290°
2026-05-05 02:55 39.05906 -76.16715 12763 ft 295 kts 276°
2026-05-05 02:56 39.06765 -76.19497 10939 ft 348 kts 304°
2026-05-05 02:56 39.08460 -76.21473 9057 ft 319 kts 327°
2026-05-05 02:56 39.10753 -76.22407 6750 ft 392 kts 346°
2026-05-05 02:56 39.13269 -76.22888 4270 ft 347 kts 347°
2026-05-05 02:57 39.15640 -76.23359 2762 ft 318 kts 346°
2026-05-05 02:57 39.17810 -76.23730 2341 ft 348 kts 359°
2026-05-05 02:57 39.20366 -76.23355 1937 ft 359 kts 352°